Showing default

CENTAURI-6, 59451

Orbit data source: Space-Track

CENTAURI-6, 59451 is a payload satellite owned by Fleet Space (AU) in LEO that was launched on Sun, 07 Apr 2024 UTC via an FALCON 9 launch vehicle from the Air Force Eastern Test Range (AFETR). Payload-class satellites include a variety of spacecraft equipped with specific instruments for various scientific and technological missions. These include communications satellites like Starlink; space stations such as the ISS; scientific satellites like the Hubble; Earth observation satellites from companies like Planet Labs, Umbra, and HawkEye 360; GPS; miniature CubeSats for education and research; and military/defense satellites.

Loading next visibility...
Identifier
59451, 2024-066K
Orbit
LEO
Last TLE update
1 day ago
Origin
Manufacturer
Terran Orbital
Mission
Operational spacecraft
Bus & Motor
CUBESAT 12U, Unknown motor
Mass
~20 kg wet, ~20 kg dry
Launch date (UTC)
2024-04-07 (1 year ago)
Launch vehicle
FALCON 9
Launch site
Air Force Eastern Test Range (AFETR)
Object type
Payload
Rocket body
Debris
Shape & HBR
Unknown
Radar Cross Section
Medium (>0.1 m² and <1 m²)

Expand to show TLE details & history

TLE from 1 day ago
0 CENTAURI-6
1 59451U 24066K   25183.57036318  .00003574  00000-0  29337-3 0  9990
2 59451  45.6058 274.0349 0003297 325.7907  34.2762 15.01066301 67502
Epoch: 2025-07-02T13:41Z
TLE epoch observation values (Epoch: 2025-07-02T13:41:19.378Z)
Latitude
-0.00004°
Longitude
147.85455°
Altitude
561.782 km
Speed
7.583 km/s
True Right ascension
18h 16m 08s
True Declination
0° 00' 00"
Sunlit
Object was in full shadow at epoch
Visualization orbit readout
Latitude
33.79136°
Longitude
-176.7072°
Altitude
564.706 km
Speed
7.584 km/s
Apparent Right ascension
17h 32m 52s
Apparent Declination
-2° 00' 14"
Sunlit
Object is in full shadow
Visualization observer readout
Local Sidereal Time
01:39:17
Azimuth
289.965° WNW
Elevation
-25.094°
Doppler factor
1
Orbital elements
Apogee altitude
567.386 km
Perigee altitude
562.808 km
Semi-major axis
6,943.234 km
Eccentricity
0.00033
Inclination
45.6058°
RAAN
274.0349°
Arg. of periapsis
325.7907°
True anomaly
Unknown
Mean anomaly
34.2762°
Eccentric anomaly
Unknown
Mean motion
3.75146 °/min
Orbital period
95.96 mins
BSTAR
0.00029337
Loading maneuver chart data...
Loading SW <> Apogee altitude chart data...
Loading historical data...
Loading historical data...
Loading historical data...
Loading historical data...
Loading historical data...
Loading historical data...
Loading historical data...

CENTAURI-6 Visibility forecast

Observer location: undefined°, undefined°

Span
Click to sort rows by Start time (UTC) header in descending order
Start Az.
Max El. time (UTC)
Max El. Az.
Max El.
End time (UTC)
End Az.
7 mins2025-07-03 14:05:23.370Z298.288° NW2025-07-03 14:08:23.370Z333.617° NNW41.986°2025-07-03 14:12:23.370Z106.19° ESE
5 mins2025-07-03 15:47:23.370Z257.088° W2025-07-03 15:49:23.370Z212.793° SW24.449°2025-07-03 15:52:23.370Z163.042° S
6 mins2025-07-04 09:02:23.370Z227.748° WSW2025-07-04 09:04:23.370Z188.511° SSW41.384°2025-07-04 09:08:23.370Z69.657° E
6 mins2025-07-04 10:43:23.370Z289.111° WNW2025-07-04 10:45:23.370Z342.073° N34.658°2025-07-04 10:49:23.370Z60.923° ENE
6 mins2025-07-04 12:24:23.370Z310.331° NW2025-07-04 12:26:23.370Z358.018° N32.563°2025-07-04 12:30:23.370Z77.478° E
|